Location: Cella
(44.7333°N, 10.5667°E)
Time: 21:15:25
(UTC+00:00)

ATLAS 5 CENTAUR R/B - Pass Details

Date: 03 March 2021
Orbit: 254 x 14189 km, 60.8° (Epoch: 16 April)

Event Time Altitude Azimuth Distance (km) Brightness Sun altitude
Rises 17:01:29 0° 228° (SW) 11,504 9.6 0.3°
Reaches altitude 10° 17:13:07 10° 233° (SW) 7,966 8.8 -1.7°
Maximum altitude 17:31:05 58° 311° (NW) 1,517 4.3 -4.9°
Drops below altitude 10° 17:35:38 10° 33° (NNE) 2,175 4.5 -5.7°
Sets 17:37:02 0° 38° (NE) 2,746 5.0 -5.9°
